Regional Weather Roundup
Issued by NWS

Home | Current Version | Previous Version | Text Only | Print | Product List | Glossary On
Versions: 1 2 3 4 5 6 7 8 9 10 11 12 13 14 15 16 17 18 19 20 21 22 23 24 25 26 27 28 29 30 31 32 33 34 35 36 37 38 39 40 41 42 43 44 45 46 47 48 49 50
000
ASHW40 PHFO 222132
RWRHI

WEATHER ROUNDUP FOR HAWAII
NATIONAL WEATHER SERVICE HONOLULU HI
1100 AM HST TUE AUG 22 2017

THIS IS AN AUTOMATED REPORT THAT HAS NOT BEEN QUALITY CONTROLLED.

NOTE..."FAIR" INDICATES FEW OR NO CLOUDS BELOW 12,000 FEET WITH NO
SIGNIFICANT WEATHER AND/OR OBSTRUCTIONS TO VISIBILITY.

* - THESE SITES REPORT LIMITED FIELDS
# - BUOY DATA PROVIDED BY PACIFIC ISLANDS OCEAN OBSERVING SYSTEM.

HIZ001>004-222200-
KAUAI-NIIHAU-

CITY           SKY/WX    TMP DP  RH WIND       PRES   REMARKS
LIHUE APT      PTSUNNY   86  75  69 E13       30.05S HX  95
PORT ALLEN*      N/A     88 N/A N/A E16G23      N/A
POIPU*           N/A     84 N/A N/A E9G20       N/A
PRINCEVILLE*     N/A     81 N/A N/A SE8G15      N/A
KOKOLE POINT*  NOT AVBL
MOLOAA DAIRY*    N/A     84  75  74 E10G17      N/A  HX  92
WAIMEA HTS*    NOT AVBL
PUU OPAE*      NOT AVBL
PUU LUA*       NOT AVBL
MAKAHA RIDGE*    N/A     82  66  57 W3          N/A
$$

HIZ005>011-222200-
OAHU-

CITY           SKY/WX    TMP DP  RH WIND       PRES   REMARKS
HONOLULU       MOSUNNY   83  70  64 E21G26    30.01S
KALAELOA       CLOUDY    87  71  58 NE8       30.02S HX  93
KANEOHE MCB    PTSUNNY   85  75  72 E9G18     30.01S HX  93
WHEELER FIELD  CLOUDY    83  72  70 NE14      30.03F
BELLOWS*         N/A    N/A N/A N/A NE16        N/A
KAHUKU*          N/A    N/A N/A N/A NE12G21     N/A
WHEELER*       NOT AVBL
WAIANAE HARBOR NOT AVBL
DILLINGHAM*      N/A     70  57  64 SW8G18      N/A
KAHUKU TRN*      N/A     84  73  70 W10G25      N/A  HX  91
KAWAILOA*        N/A     79  72  78 E13G22      N/A
KII*             N/A     82  75  78 E17G25      N/A
MAKUA RANGE*     N/A     73  63  68 E5G13       N/A
OAHU FOREST NW NOT AVBL
SCHOFIELD BRK*   N/A     82  73  74 MISG        N/A
SCHOFIELD S*   NOT AVBL
WAIANAE VLY*   NOT AVBL
KUAOKALA*      NOT AVBL
HONOULIUULI*   NOT AVBL
MOKUOLOE IS*   NOT AVBL
PALEHUA*       NOT AVBL
WAIAWA PHB*    NOT AVBL
$$

HIZ012>013-222200-
MOLOKAI-

CITY           SKY/WX    TMP DP  RH WIND       PRES   REMARKS
MOLOKAI AIRPT  MOSUNNY   85  73  67 NE20G30   30.02F HX  91
KALAUPAPA      NOT AVBL
MAKAPULAPAI*     N/A     86  75  70 E18G28      N/A  HX  95
MOLOKAI 1*     NOT AVBL
PUU ALII*        N/A     68  68 100 N2G10       N/A
$$

HIZ016-222200-
KAHOOLAWE-

CITY           SKY/WX    TMP DP  RH WIND       PRES   REMARKS
KAHOOLAWE*     NOT AVBL
HAKIOAWA*        N/A     79  74  84 MISG      30.43F
HONOKANAIA*      N/A     84  71  65 NE13G35   29.95S
KANELOA*         N/A     79  75  89 E22G35    30.07F
KEALIALALO*    NOT AVBL
LUA MAKIKA*    NOT AVBL
$$

HIZ014>015-222200-
LANAI-

CITY           SKY/WX    TMP DP  RH WIND       PRES   REMARKS
LANAI CITY     CLOUDY    79  72  79 VRB3      30.08R
LANAI 1*       NOT AVBL
$$

HIZ017>028-222200-
MAUI-

CITY           SKY/WX    TMP DP  RH WIND       PRES   REMARKS
KAHULUI        MOSUNNY   87  72  60 E22G29    30.01S HX  93
KAPALUA-W MAUI LGT RAIN  79  73  83 NE17G26   30.03
HANA AIRPORT   CLOUDY    82  75  78 E6        30.07S
HANA*          NOT AVBL
HALEAKALA SUMM NOT AVBL
MAALAEA BAY*     N/A     86 N/A N/A N18G32      N/A
HALEAKALA*     NOT AVBL
KAUPO GAP*     NOT AVBL
KULA 1*          N/A     67  61  81 W3G9        N/A
$$

HIZ023>026-222200-
BIG ISLAND OF HAWAII COAST AND LOWER SLOPES-

CITY           SKY/WX    TMP DP  RH WIND       PRES   REMARKS
KAILUA KONA    CLOUDY    84  74  71 SW9       29.97S HX  91
HILO           CLOUDY    81  73  78 E16       30.03F
HONOKAA*         N/A     72 N/A N/A VRB1        N/A
KAWAIHAE MWT*    N/A     82 N/A N/A W7          N/A
KAWAIHAE*        N/A     81 N/A N/A W7        29.98S
SOUTH POINT*     N/A     75 N/A N/A N23G32      N/A
UPOLU AIRPORT* NOT AVBL
KAMUELA*         N/A     75  70  83 NE21      30.12S
HAKALAU*         N/A     60  59  95 E1G10       N/A
KALOKO-HONOKO*   N/A     86  73  66 W8        29.97S HX  93
PALI 2*          N/A     72  66  83 W3G21       N/A
KEALAKOMO*       N/A     82  75  78 NE17G23     N/A
KAUPULEHU*     NOT AVBL
KAPAPALA*        N/A     74  74 100 E6G14       N/A
LOWER KAHUKU*    N/A     68  68 100 E2G10       N/A
PUHE CS*         N/A     84  70  61 W3G9        N/A
PUHO CS*         N/A     85  71  61 W3          N/A  HX  90
PTA KEAMUKU*     N/A     79  66  65 SW9         N/A
WAIKOLOA*      NOT AVBL
$$

HIZ027>028-222200-
BIG ISLAND OF HAWAII INTERIOR AND SUMMMITS-

CITY           SKY/WX    TMP DP  RH WIND       PRES   REMARKS
BRADSHAW FIELD CLOUDY    72  50  46 SW5       30.34F
MK VISITOR CEN   N/A     57  39  51 NE13        N/A
MAUNA KEA*       N/A     34  32  93 NE14        N/A  WCI  24
MAUNA LOA*       N/A     52  39  62 MISG        N/A
MAUNA LOA 1*   NOT AVBL
PTA KIPUKA*      N/A     55  36  47 NW12G23     N/A
PTA RANGE 17*    N/A     70  52  52 NW16G26     N/A
PTA WEST*        N/A     73  63  68 NW7         N/A
NENE CABIN*      N/A     64  57  77 E10G21      N/A
AHUMOA*        NOT AVBL
PTA PORTABLE*  NOT AVBL
PUU MALI*        N/A     70  46  43 SE8G23      N/A
$$

HIC003-222200-
NORTHWEST ISLANDS-

CITY           SKY/WX    TMP DP  RH WIND       PRES   REMARKS
MIDWAY ISLAND  MOSUNNY   82  75  78 NE16      30.18S
MIDWAY NOS*      N/A     81 N/A N/A MISG      30.16S
FRENCH FRIGATE NOT AVBL
$$

PHZ110>124-180-222200-
BUOY REPORTS

STATION/POSITION TIME  TEMP    WIND        PRES    WAVE   SWELL
                       AIR SEA DIR/SP/G            HT/PER HT/DIR
                 (UTC) (F)     (DEG/KT/KT) (MB)    (FT/S) (FT/D)
BUOY 51001       2110   81 81   80/ 14/ 17 1018.2
BUOY 51101       2050   80 81   80/ 12/ 16 1018.6    4/11   3/150
BUOY 51100       NOT AVBL
BUOY 51002       2110   80 81   80/ 16/ 19 1014.3
BUOY 51003       2050   80 82   60/ 14/ 16 1015.7    5/ 7   3/ 70
BUOY 51004       2050      80   70/ 17/ 21 1014.9    7/ 8   3/140
WAIMEA BAY#      2102      79                N/A     4/ 8
MOKAPU POINT#    2104      81                N/A     6/ 6   2/140
LANAI#           NOT AVBL
BARBERS PT 2#    NOT AVBL
PAUWELA#         2109      80                N/A     6/ 8
HILO#            2057      81                N/A     6/ 8   2/100
KANEOHE BAY#     NOT AVBL
KANEOHE BAY 2#   NOT AVBL
HANALEI#         2052      81                N/A     5/ 8
KAHULUI HARBOR   2100   80 81   40/ 12/ 17 1016.4
HONOLULU HARBOR  2100   83 81  110/  7/ 12 1017.1
PEARL HARBOR#    2100      81                N/A     3/11   2/160
KILO NALU        NOT AVBL
HILO HARBOR      2100   82 80   70/  6/ 10 1016.7
MOKUOLOE         2036   83 83   90/ 12/ 16 1017.2S
NAWILIWILI       2100   81      70/ 11/ 13 1017.2
WHOTS BUOY       NOT AVBL
BUOY 51028       NOT AVBL
$$

......................KEY........................................
  SKY/WX - SKY CONDITIONS/PRESENT WEATHER
  TMP    - TEMPERATURE IN FAHRENHEIT
  DWPT   - DEWPOINT IN FAHRENHEIT
  RH     - RELATIVE HUMIDITY IN PERCENT
  WIND   - DIRECTION AND SPEED /MPH FOR ISLANDS...KTS FOR BUOYS/
  PRES   - MEAN SEA LEVEL PRESSURE IN INCHES OF HG
  VSB    - VISIBILITY IN MILES
  HX     - HEAT INDEX
  WCI    - WIND CHILL INDEX
  VRB    - VARIABLE WIND DIRECTION
  N/A    - NOT AVAILABLE



USA.gov is the U.S. government's official web portal to all federal, state and local government web resources and services.